When you browse on this site, cookies collect data to enhance your experience and personalize the content and advertising you see.
Visit our Privacy Policy to learn more. By continuing to use the site, you agree to this use of cookies and data.
  • In Netherlands
  • List of Countries
  • For 7 days
  • Water Temperature
  • Satellite Maps
  • Weather Map
  • Weather Widgets
  • user-avatar
    Login

    Hourly Weather Assen

    Today, 16 January, Wednesday

    Time Temperature Precipitation Wind Pressure Humidity
    00:00 +5°C° 0 mm 6 mps 757 mmHg 85%
    01:00 +5°C° 0 mm 6 mps 756 mmHg 85%
    02:00 +5°C° 0 mm 6 mps 756 mmHg 85%
    03:00 +5°C° 0 mm 6 mps 755 mmHg 84%
    04:00 +7°C° 0 mm 6 mps 755 mmHg 86%
    05:00 +7°C° 0 mm 6 mps 755 mmHg 87%
    06:00 +7°C° 0 mm 6 mps 754 mmHg 88%
    07:00 +6°C° 0.1 mm 7 mps 754 mmHg 88%
    08:00 +6°C° 0.1 mm 7 mps 753 mmHg 87%
    09:00 +6°C° 0.1 mm 7 mps 753 mmHg 87%
    10:00 +5°C° 0.2 mm 8 mps 753 mmHg 86%
    11:00 +5°C° 0.2 mm 8 mps 752 mmHg 84%
    12:00 +5°C° 0.2 mm 8 mps 752 mmHg 83%
    13:00 +5°C° 0 mm 8 mps 751 mmHg 83%
    14:00 +5°C° 0 mm 8 mps 750 mmHg 83%
    15:00 +5°C° 0 mm 8 mps 750 mmHg 82%
    16:00 +4°C° 0.1 mm 8 mps 749 mmHg 83%
    17:00 +4°C° 0.1 mm 8 mps 748 mmHg 83%
    18:00 +4°C° 0.1 mm 8 mps 747 mmHg 84%
    19:00 +3°C° 0.2 mm 9 mps 747 mmHg 84%
    20:00 +3°C° 0.2 mm 9 mps 747 mmHg 84%
    21:00 +3°C° 0.2 mm 10 mps 746 mmHg 84%
    22:00 +3°C° 0.4 mm 9 mps 747 mmHg 82%
    23:00 +4°C° 0.4 mm 7 mps 747 mmHg 81%

    Tomorrow, 17 January, Thursday

    Time Temperature Precipitation Wind Pressure Humidity
    00:00 +3°C° 0.4 mm 6 mps 747 mmHg 79%
    01:00 +3°C° 0 mm 6 mps 747 mmHg 80%
    02:00 +3°C° 0 mm 6 mps 747 mmHg 80%
    03:00 +2°C° 0 mm 6 mps 747 mmHg 80%
    04:00 +2°C° 0 mm 6 mps 747 mmHg 81%
    05:00 +2°C° 0 mm 7 mps 747 mmHg 81%
    06:00 +2°C° 0 mm 7 mps 747 mmHg 81%
    07:00 +2°C° 0.2 mm 7 mps 747 mmHg 81%
    08:00 +1°C° 0.2 mm 8 mps 747 mmHg 80%
    09:00 +2°C° 0.2 mm 8 mps 748 mmHg 79%
    10:00 +2°C° 0.1 mm 8 mps 748 mmHg 71%
    11:00 +2°C° 0.1 mm 8 mps 749 mmHg 63%
    12:00 +2°C° 0.1 mm 9 mps 750 mmHg 55%
    13:00 +1°C° 0.2 mm 8 mps 750 mmHg 58%
    14:00 +1°C° 0.2 mm 8 mps 751 mmHg 61%
    15:00 0°C° 0.2 mm 7 mps 752 mmHg 64%
    16:00 0°C° 0.1 mm 7 mps 752 mmHg 65%
    17:00 0°C° 0.1 mm 8 mps 753 mmHg 65%
    18:00 0°C° 0.1 mm 8 mps 754 mmHg 65%
    19:00 0°C° 0.1 mm 7 mps 755 mmHg 66%
    20:00 0°C° 0.1 mm 7 mps 756 mmHg 67%
    21:00 -1°C° 0.1 mm 6 mps 756 mmHg 68%
    22:00 -1°C° 0 mm 6 mps 757 mmHg 70%
    23:00 0°C° 0 mm 5 mps 758 mmHg 71%

    Day after tomorrow, 18 January, Friday

    Time Temperature Precipitation Wind Pressure Humidity
    00:00 0°C° 0 mm 5 mps 758 mmHg 73%
    01:00 0°C° 0 mm 4 mps 759 mmHg 75%
    02:00 0°C° 0 mm 4 mps 760 mmHg 77%
    03:00 0°C° 0 mm 3 mps 760 mmHg 79%
    04:00 0°C° 0 mm 3 mps 760 mmHg 79%
    05:00 0°C° 0 mm 3 mps 761 mmHg 80%
    06:00 +1°C° 0 mm 2 mps 761 mmHg 81%
    07:00 +1°C° 0 mm 2 mps 761 mmHg 80%
    08:00 +1°C° 0 mm 2 mps 762 mmHg 80%
    09:00 +1°C° 0 mm 2 mps 762 mmHg 80%
    10:00 +2°C° 0 mm 2 mps 762 mmHg 77%
    11:00 +3°C° 0 mm 3 mps 762 mmHg 75%
    12:00 +4°C° 0 mm 3 mps 762 mmHg 73%
    13:00 +3°C° 0 mm 3 mps 762 mmHg 76%
    14:00 +4°C° 0 mm 2 mps 762 mmHg 79%
    15:00 +3°C° 0 mm 2 mps 762 mmHg 82%
    16:00 +2°C° 0 mm 2 mps 762 mmHg 85%
    17:00 +1°C° 0 mm 3 mps 762 mmHg 88%
    18:00 0°C° 0 mm 3 mps 762 mmHg 90%
    19:00 0°C° 0 mm 3 mps 762 mmHg 91%
    20:00 -1°C° 0 mm 2 mps 762 mmHg 91%
    21:00 -1°C° 0 mm 2 mps 762 mmHg 92%
    22:00 -1°C° 0 mm 2 mps 762 mmHg 91%
    23:00 -1°C° 0 mm 2 mps 762 mmHg 90%

    19 January, Saturday

    Time Temperature Precipitation Wind Pressure Humidity
    00:00 -2°C° 0 mm 2 mps 762 mmHg 89%
    01:00 -2°C° 0 mm 3 mps 761 mmHg 88%
    02:00 -2°C° 0 mm 3 mps 761 mmHg 87%
    03:00 -2°C° 0 mm 3 mps 761 mmHg 86%
    04:00 -2°C° 0 mm 3 mps 760 mmHg 85%
    05:00 -2°C° 0 mm 3 mps 760 mmHg 84%
    06:00 -2°C° 0 mm 3 mps 760 mmHg 84%
    07:00 -2°C° 0 mm 4 mps 760 mmHg 80%
    08:00 -2°C° 0 mm 4 mps 760 mmHg 76%
    09:00 -1°C° 0 mm 4 mps 760 mmHg 73%
    10:00 -1°C° 0 mm 4 mps 760 mmHg 69%
    11:00 0°C° 0 mm 4 mps 760 mmHg 66%
    12:00 +1°C° 0 mm 4 mps 760 mmHg 62%
    13:00 +1°C° 0 mm 4 mps 760 mmHg 64%
    14:00 0°C° 0 mm 4 mps 760 mmHg 66%
    15:00 +1°C° 0 mm 3 mps 759 mmHg 68%
    16:00 0°C° 0 mm 3 mps 759 mmHg 70%
    17:00 -2°C° 0 mm 4 mps 760 mmHg 72%
    18:00 -2°C° 0 mm 4 mps 760 mmHg 75%
    19:00 -1°C° 0 mm 3 mps 760 mmHg 75%
    20:00 -2°C° 0 mm 3 mps 761 mmHg 74%
    21:00 -2°C° 0 mm 3 mps 761 mmHg 74%
    22:00 -2°C° 0 mm 3 mps 761 mmHg 74%
    23:00 -2°C° 0 mm 3 mps 761 mmHg 74%

    20 January, Sunday

    Time Temperature Precipitation Wind Pressure Humidity
    00:00 -2°C° 0 mm 3 mps 761 mmHg 74%
    01:00 -4°C° 0 mm 3 mps 761 mmHg 74%
    02:00 -4°C° 0 mm 3 mps 762 mmHg 74%
    03:00 -4°C° 0 mm 3 mps 762 mmHg 73%
    04:00 -4°C° 0 mm 3 mps 762 mmHg 72%
    05:00 -4°C° 0 mm 3 mps 762 mmHg 71%
    06:00 -4°C° 0 mm 3 mps 763 mmHg 71%
    07:00 -3°C° 0 mm 4 mps 763 mmHg 69%
    08:00 -3°C° 0 mm 4 mps 764 mmHg 67%
    09:00 -3°C° 0 mm 4 mps 764 mmHg 66%
    10:00 -2°C° 0 mm 4 mps 765 mmHg 63%
    11:00 -1°C° 0 mm 4 mps 765 mmHg 60%
    12:00 0°C° 0 mm 4 mps 765 mmHg 56%
    13:00 0°C° 0 mm 4 mps 766 mmHg 59%
    14:00 +1°C° 0 mm 3 mps 766 mmHg 62%
    15:00 0°C° 0 mm 3 mps 766 mmHg 65%
    16:00 -1°C° 0 mm 3 mps 766 mmHg 68%
    17:00 -1°C° 0 mm 3 mps 767 mmHg 72%
    18:00 -2°C° 0 mm 3 mps 768 mmHg 75%
    19:00 -2°C° 0 mm 3 mps 768 mmHg 74%
    20:00 -2°C° 0 mm 3 mps 769 mmHg 72%
    21:00 -4°C° 0 mm 3 mps 769 mmHg 71%
    22:00 -4°C° 0 mm 3 mps 770 mmHg 69%
    23:00 -4°C° 0 mm 3 mps 770 mmHg 67%

    21 January, Monday

    Time Temperature Precipitation Wind Pressure Humidity
    00:00 -4°C° 0 mm 3 mps 770 mmHg 65%
    01:00 -3°C° 0 mm 2 mps 770 mmHg 65%
    02:00 -3°C° 0 mm 2 mps 771 mmHg 64%
    03:00 -3°C° 0 mm 2 mps 771 mmHg 63%
    04:00 -3°C° 0 mm 2 mps 771 mmHg 65%
    05:00 -3°C° 0 mm 2 mps 771 mmHg 67%
    06:00 -4°C° 0 mm 2 mps 771 mmHg 68%
    07:00 -3°C° 0 mm 2 mps 772 mmHg 69%
    08:00 -3°C° 0 mm 2 mps 772 mmHg 70%
    09:00 -2°C° 0 mm 2 mps 772 mmHg 71%
    10:00 -1°C° 0 mm 2 mps 772 mmHg 67%
    11:00 +1°C° 0 mm 2 mps 772 mmHg 64%
    12:00 +2°C° 0 mm 2 mps 772 mmHg 60%
    13:00 +1°C° 0 mm 2 mps 772 mmHg 64%
    14:00 +1°C° 0 mm 2 mps 771 mmHg 67%
    15:00 -1°C° 0 mm 2 mps 771 mmHg 70%
    16:00 -1°C° 0 mm 2 mps 771 mmHg 73%
    17:00 -2°C° 0 mm 2 mps 771 mmHg 76%
    18:00 -3°C° 0 mm 2 mps 770 mmHg 78%
    19:00 -3°C° 0 mm 2 mps 770 mmHg 77%
    20:00 -3°C° 0 mm 2 mps 770 mmHg 76%
    21:00 -4°C° 0 mm 2 mps 770 mmHg 74%
    22:00 -4°C° 0 mm 2 mps 769 mmHg 73%
    23:00 -4°C° 0 mm 2 mps 768 mmHg 72%
    Show more